| time (UTC) | temp C | wind direction | speed KPH | gust KPH | rain 1hr cm | rain 24hr cm | rain mn cm | humidity % | barometer mb |
| 20260507140505 | 28 | 198 | 8.0 | 27.4 | 0.00 | 0.00 | 0.00 | 65 | 1017.8 |
| 20260507140005 | 27 | 187 | 12.9 | 19.3 | 0.00 | 0.00 | 0.00 | 64 | 1017.6 |
| 20260507135006 | 27 | 164 | 8.0 | 19.3 | 0.00 | 0.00 | 0.00 | 64 | 1017.6 |
| 20260507134526 | 27 | 175 | 8.0 | 19.3 | 0.00 | 0.00 | 0.00 | 65 | 1017.7 |
| 20260507134003 | 26 | 199 | 8.0 | 19.3 | 0.00 | 0.00 | 0.00 | 64 | 1017.7 |
| 20260507133507 | 26 | 184 | 9.7 | 14.5 | 0.00 | 0.00 | 0.00 | 1017.8 | |
| 20260507133014 | 26 | 182 | 8.0 | 17.7 | 0.00 | 0.00 | 0.00 | 1017.6 | |
| 20260507132503 | 25 | 190 | 11.3 | 17.7 | 0.00 | 0.00 | 0.00 | 73 | 1017.6 |
| 20260507132003 | 25 | 215 | 8.0 | 16.1 | 0.00 | 0.00 | 0.00 | 73 | 1017.5 |
| 20260507131516 | 25 | 159 | 4.8 | 16.1 | 0.00 | 0.00 | 0.00 | 74 | 1017.4 |
| 20260507131004 | 24 | 167 | 6.4 | 16.1 | 0.00 | 0.00 | 0.00 | 76 | 1017.3 |
| 20260507130005 | 23 | 198 | 6.4 | 14.5 | 0.00 | 0.00 | 0.00 | 79 | 1017.1 |
| 20260507125505 | 23 | 167 | 8.0 | 14.5 | 0.00 | 0.00 | 0.00 | 79 | 1017.1 |
| 20260507124005 | 21 | 200 | 4.8 | 11.3 | 0.00 | 0.00 | 0.00 | 87 | 1017.0 |
| 20260507123506 | 21 | 193 | 6.4 | 11.3 | 0.00 | 0.00 | 0.00 | 87 | 1017.0 |
| 20260507123016 | 21 | 180 | 6.4 | 11.3 | 0.00 | 0.00 | 0.00 | 89 | 1017.1 |
| 20260507122505 | 20 | 176 | 4.8 | 9.7 | 0.00 | 0.00 | 0.00 | 91 | 1017.1 |
| 20260507121504 | 20 | 168 | 3.2 | 8.0 | 0.00 | 0.00 | 0.00 | 93 | 1017.1 |
| 20260507121003 | 20 | 177 | 3.2 | 8.0 | 0.00 | 0.00 | 0.00 | 93 | 1017.0 |
| 20260507120507 | 20 | 186 | 3.2 | 8.0 | 0.00 | 0.00 | 0.00 | 94 | 1017.0 |
| 20260507120008 | 19 | 198 | 0.0 | 8.0 | 0.00 | 0.00 | 0.00 | 94 | 1017.0 |
| 20260507115504 | 19 | 195 | 1.6 | 8.0 | 0.00 | 0.00 | 0.00 | 95 | 1016.9 |
| 20260507115007 | 19 | 194 | 4.8 | 8.0 | 0.00 | 0.00 | 0.00 | 95 | 1016.8 |
| 20260507114520 | 18 | 186 | 3.2 | 8.0 | 0.00 | 0.00 | 0.00 | 95 | 1016.8 |
| 20260507114003 | 18 | 138 | 0.0 | 3.2 | 0.00 | 0.00 | 0.00 | 94 | 1016.8 |
| 20260507113010 | 18 | 360 | 0.0 | 3.2 | 0.00 | 0.00 | 0.00 | 94 | 1016.6 |
| 20260507112507 | 18 | 360 | 0.0 | 1.6 | 0.00 | 0.00 | 0.00 | 94 | 1016.6 |
| 20260507112003 | 18 | 162 | 0.0 | 1.6 | 0.00 | 0.00 | 0.00 | 94 | 1016.5 |
| 20260507111519 | 18 | 161 | 0.0 | 1.6 | 0.00 | 0.00 | 0.00 | 94 | 1016.5 |
| 20260507111003 | 18 | 161 | 0.0 | 0.0 | 0.00 | 0.00 | 0.00 | 94 | 1016.6 |
| 20260507110508 | 18 | 181 | 0.0 | 0.0 | 0.00 | 0.00 | 0.00 | 94 | 1016.6 |
| 20260507110005 | 18 | 181 | 0.0 | 0.0 | 0.00 | 0.00 | 0.00 | 94 | 1016.5 |
| 20260507105504 | 18 | 181 | 0.0 | 0.0 | 0.00 | 0.00 | 0.00 | 94 | 1016.6 |
| 20260507105003 | 18 | 181 | 0.0 | 0.0 | 0.00 | 0.00 | 0.00 | 94 | 1016.5 |
| 20260507104508 | 18 | 181 | 0.0 | 0.0 | 0.00 | 0.00 | 0.00 | 94 | 1016.4 |
| 20260507104006 | 18 | 186 | 0.0 | 0.0 | 0.00 | 0.00 | 0.00 | 94 | 1016.4 |
| 20260507103504 | 18 | 186 | 0.0 | 0.0 | 0.00 | 0.00 | 0.00 | 93 | 1016.4 |
| 20260507103013 | 18 | 186 | 0.0 | 0.0 | 0.00 | 0.00 | 0.00 | 93 | 1016.4 |
| 20260507102503 | 18 | 186 | 0.0 | 0.0 | 0.00 | 0.00 | 0.00 | 93 | 1016.5 |
| 20260507102007 | 18 | 186 | 0.0 | 0.0 | 0.00 | 0.00 | 0.00 | 93 | 1016.4 |
| 20260507101521 | 18 | 186 | 0.0 | 0.0 | 0.00 | 0.00 | 0.00 | 93 | 1016.3 |
| 20260507101004 | 18 | 186 | 0.0 | 0.0 | 0.00 | 0.00 | 0.00 | 93 | 1016.3 |
| 20260507100504 | 19 | 186 | 0.0 | 0.0 | 0.00 | 0.00 | 0.00 | 93 | 1016.1 |
| 20260507100021 | 19 | 186 | 0.0 | 0.0 | 0.00 | 0.00 | 0.00 | 94 | 1016.1 |
| 20260507095507 | 19 | 186 | 0.0 | 0.0 | 0.00 | 0.00 | 0.00 | 94 | 1016.1 |
| 20260507095005 | 18 | 186 | 0.0 | 0.0 | 0.00 | 0.00 | 0.00 | 93 | 1015.8 |
| 20260507094508 | 19 | 186 | 0.0 | 0.0 | 0.00 | 0.00 | 0.00 | 93 | 1015.7 |
| 20260507094003 | 19 | 186 | 0.0 | 0.0 | 0.00 | 0.00 | 0.00 | 93 | 1015.7 |
| 20260507093503 | 19 | 186 | 0.0 | 0.0 | 0.00 | 0.00 | 0.00 | 93 | 1015.7 |
| 20260507093011 | 19 | 186 | 0.0 | 0.0 | 0.00 | 0.00 | 0.00 | 93 | 1015.8 |
| 20260507092503 | 19 | 186 | 0.0 | 0.0 | 0.00 | 0.00 | 0.00 | 93 | 1015.7 |
| 20260507092003 | 19 | 186 | 0.0 | 0.0 | 0.00 | 0.00 | 0.00 | 93 | 1015.8 |
| 20260507091508 | 19 | 186 | 0.0 | 0.0 | 0.00 | 0.00 | 0.00 | 93 | 1015.8 |
| 20260507091004 | 19 | 186 | 0.0 | 0.0 | 0.00 | 0.00 | 0.00 | 93 | 1015.9 |
| 20260507090507 | 19 | 186 | 0.0 | 0.0 | 0.00 | 0.00 | 0.00 | 93 | 1015.8 |
| 20260507090035 | 19 | 186 | 0.0 | 0.0 | 0.00 | 0.00 | 0.00 | 93 | 1015.8 |
| 20260507085504 | 20 | 186 | 0.0 | 0.0 | 0.00 | 0.00 | 0.00 | 93 | 1015.9 |
| 20260507085004 | 20 | 186 | 0.0 | 0.0 | 0.00 | 0.00 | 0.00 | 93 | 1015.9 |
| 20260507084533 | 20 | 186 | 0.0 | 0.0 | 0.00 | 0.00 | 0.00 | 93 | 1015.9 |
| 20260507084005 | 20 | 186 | 0.0 | 0.0 | 0.00 | 0.00 | 0.00 | 93 | 1015.7 |
| 20260507083505 | 20 | 186 | 0.0 | 0.0 | 0.00 | 0.00 | 0.00 | 92 | 1015.6 |
| 20260507083013 | 20 | 186 | 0.0 | 0.0 | 0.00 | 0.00 | 0.00 | 93 | 1015.5 |
| 20260507082504 | 20 | 186 | 0.0 | 0.0 | 0.00 | 0.00 | 0.00 | 91 | 1015.5 |
| 20260507082004 | 20 | 186 | 0.0 | 0.0 | 0.00 | 0.00 | 0.00 | 91 | 1015.5 |
| 20260507081514 | 20 | 186 | 0.0 | 0.0 | 0.00 | 0.00 | 0.00 | 91 | 1015.3 |
| 20260507081006 | 20 | 186 | 0.0 | 0.0 | 0.00 | 0.00 | 0.00 | 91 | 1015.4 |
| 20260507080506 | 20 | 186 | 0.0 | 0.0 | 0.00 | 0.00 | 0.00 | 92 | 1015.4 |
| 20260507075508 | 20 | 186 | 0.0 | 0.0 | 0.00 | 0.00 | 0.00 | 91 | 1015.5 |
| 20260507075010 | 20 | 186 | 0.0 | 0.0 | 0.00 | 0.00 | 0.00 | 91 | 1015.5 |
| 20260507074524 | 20 | 186 | 0.0 | 0.0 | 0.00 | 0.00 | 0.00 | 91 | 1015.6 |
| 20260507074005 | 20 | 186 | 0.0 | 0.0 | 0.00 | 0.00 | 0.00 | 91 | 1015.6 |
| 20260507073025 | 20 | 186 | 0.0 | 0.0 | 0.00 | 0.00 | 0.00 | 91 | 1015.8 |
| 20260507072007 | 20 | 186 | 0.0 | 0.0 | 0.00 | 0.00 | 0.00 | 90 | 1015.8 |
| 20260507071511 | 21 | 186 | 0.0 | 0.0 | 0.00 | 0.00 | 0.00 | 91 | 1015.9 |
| 20260507071005 | 21 | 186 | 0.0 | 0.0 | 0.00 | 0.00 | 0.00 | 90 | 1015.8 |
| 20260507070507 | 21 | 186 | 0.0 | 0.0 | 0.00 | 0.00 | 0.00 | 89 | 1015.7 |
| 20260507070016 | 21 | 186 | 0.0 | 0.0 | 0.00 | 0.00 | 0.00 | 89 | 1015.7 |
| 20260507065508 | 21 | 186 | 0.0 | 0.0 | 0.00 | 0.00 | 0.00 | 89 | 1015.9 |
| 20260507064518 | 21 | 186 | 0.0 | 0.0 | 0.00 | 0.00 | 0.00 | 89 | 1015.8 |
| 20260507064010 | 21 | 186 | 0.0 | 1.6 | 0.00 | 0.00 | 0.00 | 89 | 1016.0 |
| 20260507063504 | 21 | 186 | 0.0 | 3.2 | 0.00 | 0.00 | 0.00 | 89 | 1016.0 |
| 20260507063022 | 21 | 186 | 0.0 | 3.2 | 0.00 | 0.00 | 0.00 | 88 | 1016.2 |
| 20260507061515 | 21 | 186 | 0.0 | 0.0 | 0.00 | 0.00 | 0.00 | 86 | 1016.5 |
| 20260507061002 | 21 | 186 | 0.0 | 0.0 | 0.00 | 0.00 | 0.00 | 86 | 1016.6 |
| 20260507060505 | 22 | 186 | 0.0 | 0.0 | 0.00 | 0.00 | 0.00 | 85 | 1016.5 |
| 20260507060011 | 22 | 186 | 0.0 | 0.0 | 0.00 | 0.00 | 0.00 | 84 | 1016.6 |
| 20260507055506 | 22 | 186 | 0.0 | 0.0 | 0.00 | 0.00 | 0.00 | 84 | 1016.6 |
| 20260507055007 | 22 | 186 | 0.0 | 0.0 | 0.00 | 0.00 | 0.00 | 85 | 1016.5 |
| 20260507054515 | 22 | 186 | 0.0 | 1.6 | 0.00 | 0.00 | 0.00 | 85 | 1016.6 |
| 20260507054003 | 22 | 186 | 0.0 | 1.6 | 0.00 | 0.00 | 0.00 | 85 | 1016.6 |
| 20260507053502 | 22 | 186 | 0.0 | 4.8 | 0.00 | 0.00 | 0.00 | 84 | 1016.6 |
| 20260507053006 | 22 | 186 | 0.0 | 4.8 | 0.00 | 0.00 | 0.00 | 84 | 1016.8 |
| 20260507052503 | 23 | 171 | 0.0 | 0.0 | 0.00 | 0.00 | 0.00 | 83 | 1016.9 |
| 20260507052000 | 23 | 171 | 0.0 | 0.0 | 0.00 | 0.00 | 0.00 | 82 | 1016.9 |
| 20260507051504 | 23 | 171 | 0.0 | 0.0 | 0.00 | 0.00 | 0.00 | 82 | 1017.1 |
| 20260507051003 | 23 | 171 | 0.0 | 0.0 | 0.00 | 0.00 | 0.00 | 81 | 1017.1 |
| 20260507050503 | 23 | 171 | 0.0 | 6.4 | 0.00 | 0.00 | 0.00 | 81 | 1017.1 |
| 20260507045503 | 23 | 175 | 1.6 | 4.8 | 0.00 | 0.00 | 0.00 | 81 | 1017.2 |
| 20260507045003 | 23 | 176 | 0.0 | 4.8 | 0.00 | 0.00 | 0.00 | 80 | 1017.4 |
| 20260507044507 | 23 | 175 | 0.0 | 1.6 | 0.00 | 0.00 | 0.00 | 79 | 1017.3 |
| 20260507044002 | 24 | 175 | 0.0 | 1.6 | 0.00 | 0.00 | 0.00 | 79 | 1017.3 |
| 20260507043502 | 24 | 175 | 0.0 | 4.8 | 0.00 | 0.00 | 0.00 | 79 | 1017.3 |
| 20260507043005 | 24 | 175 | 0.0 | 4.8 | 0.00 | 0.00 | 0.00 | 79 | 1017.3 |
| 20260507042503 | 24 | 171 | 0.0 | 0.0 | 0.00 | 0.00 | 0.00 | 80 | 1017.3 |
| 20260507042003 | 24 | 305 | 0.0 | 0.0 | 0.00 | 0.00 | 0.00 | 80 | 1017.2 |
| 20260507041508 | 24 | 306 | 0.0 | 0.0 | 0.00 | 0.00 | 0.00 | 80 | 1017.1 |
| 20260507041003 | 24 | 306 | 0.0 | 0.0 | 0.00 | 0.00 | 0.00 | 80 | 1017.1 |
| 20260507040503 | 23 | 306 | 0.0 | 0.0 | 0.00 | 0.00 | 0.00 | 80 | 1017.0 |
| 20260507040006 | 23 | 244 | 0.0 | 0.0 | 0.00 | 0.00 | 0.00 | 80 | 1017.2 |
| 20260507035503 | 23 | 242 | 0.0 | 0.0 | 0.00 | 0.00 | 0.00 | 80 | 1017.2 |
| 20260507035003 | 23 | 240 | 0.0 | 0.0 | 0.00 | 0.00 | 0.00 | 80 | 1017.2 |
| 20260507034004 | 23 | 240 | 0.0 | 0.0 | 0.00 | 0.00 | 0.00 | 78 | 1017.1 |
| 20260507033504 | 23 | 240 | 0.0 | 0.0 | 0.00 | 0.00 | 0.00 | 77 | 1017.0 |
| 20260507033003 | 23 | 240 | 0.0 | 0.0 | 0.00 | 0.00 | 0.00 | 77 | 1016.9 |
| 20260507032503 | 24 | 240 | 0.0 | 0.0 | 0.00 | 0.00 | 0.00 | 76 | 1017.0 |
| 20260507032002 | 24 | 240 | 0.0 | 3.2 | 0.00 | 0.00 | 0.00 | 76 | 1017.0 |
| 20260507031507 | 24 | 240 | 0.0 | 3.2 | 0.00 | 0.00 | 0.00 | 1016.9 | |
| 20260507031003 | 24 | 240 | 0.0 | 3.2 | 0.00 | 0.00 | 0.00 | 1016.7 | |
| 20260507030503 | 25 | 239 | 0.0 | 6.4 | 0.00 | 0.00 | 0.00 | 75 | 1016.8 |
| 20260507030004 | 25 | 239 | 3.2 | 6.4 | 0.00 | 0.00 | 0.00 | 75 | 1016.8 |
| 20260507025505 | 25 | 250 | 3.2 | 4.8 | 0.00 | 0.00 | 0.00 | 74 | 1016.9 |
| 20260507025003 | 25 | 261 | 1.6 | 11.3 | 0.00 | 0.00 | 0.00 | 73 | 1016.7 |
| 20260507024508 | 25 | 238 | 0.0 | 11.3 | 0.00 | 0.00 | 0.00 | 73 | 1016.8 |
| 20260507024004 | 25 | 250 | 4.8 | 8.0 | 0.00 | 0.00 | 0.00 | 72 | 1016.9 |
| 20260507023503 | 25 | 244 | 1.6 | 8.0 | 0.00 | 0.00 | 0.00 | 72 | 1017.1 |
| 20260507022503 | 25 | 227 | 3.2 | 6.4 | 0.00 | 0.00 | 0.00 | 72 | 1017.0 |
| 20260507022006 | 25 | 254 | 3.2 | 9.7 | 0.00 | 0.00 | 0.00 | 71 | 1017.0 |
| 20260507021504 | 25 | 254 | 1.6 | 9.7 | 0.00 | 0.00 | 0.00 | 71 | 1017.0 |
| 20260507021007 | 25 | 278 | 3.2 | 8.0 | 0.00 | 0.00 | 0.00 | 70 | 1016.9 |
| 20260507020503 | 25 | 233 | 4.8 | 9.7 | 0.00 | 0.00 | 0.00 | 69 | 1016.8 |
| 20260507020008 | 25 | 242 | 4.8 | 9.7 | 0.00 | 0.00 | 0.00 | 69 | 1016.8 |
| 20260507015506 | 26 | 234 | 4.8 | 9.7 | 0.00 | 0.00 | 0.00 | 69 | 1016.7 |
| 20260507015003 | 26 | 212 | 3.2 | 8.0 | 0.00 | 0.00 | 0.00 | 68 | 1016.8 |
| 20260507014506 | 26 | 246 | 3.2 | 11.3 | 0.00 | 0.00 | 0.00 | 68 | 1016.7 |
| 20260507014004 | 26 | 239 | 3.2 | 16.1 | 0.00 | 0.00 | 0.00 | 67 | 1016.7 |
| 20260507013503 | 26 | 214 | 6.4 | 16.1 | 0.00 | 0.00 | 0.00 | 66 | 1016.6 |
| 20260507013007 | 26 | 275 | 8.0 | 12.9 | 0.00 | 0.00 | 0.00 | 65 | 1016.6 |
| 20260507012503 | 26 | 243 | 6.4 | 12.9 | 0.00 | 0.00 | 0.00 | 65 | 1016.4 |
| 20260507012003 | 26 | 248 | 4.8 | 16.1 | 0.00 | 0.00 | 0.00 | 65 | 1016.3 |
| 20260507011516 | 27 | 240 | 3.2 | 17.7 | 0.00 | 0.00 | 0.00 | 65 | 1016.3 |
| 20260507011002 | 27 | 261 | 6.4 | 17.7 | 0.00 | 0.00 | 0.00 | 65 | 1016.4 |
| 20260507010503 | 27 | 231 | 8.0 | 16.1 | 0.00 | 0.00 | 0.00 | 65 | 1016.3 |
| 20260507010015 | 27 | 245 | 4.8 | 17.7 | 0.00 | 0.00 | 0.00 | 66 | 1016.2 |
| 20260507005504 | 27 | 241 | 8.0 | 17.7 | 0.00 | 0.00 | 0.00 | 66 | 1016.0 |
| 20260507005003 | 27 | 215 | 8.0 | 17.7 | 0.00 | 0.00 | 0.00 | 66 | 1015.9 |
| 20260507004509 | 27 | 221 | 9.7 | 17.7 | 0.00 | 0.00 | 0.00 | 66 | 1015.9 |
| 20260507004005 | 27 | 225 | 6.4 | 14.5 | 0.00 | 0.00 | 0.00 | 67 | 1015.9 |
| 20260507003502 | 28 | 224 | 6.4 | 12.9 | 0.00 | 0.00 | 0.00 | 66 | 1015.9 |
| 20260507003015 | 28 | 238 | 6.4 | 16.1 | 0.00 | 0.00 | 0.00 | 66 | 1015.7 |
| 20260507002504 | 28 | 246 | 4.8 | 16.1 | 0.00 | 0.00 | 0.00 | 65 | 1015.7 |
| 20260507002003 | 28 | 256 | 9.7 | 16.1 | 0.00 | 0.00 | 0.00 | 65 | 1015.7 |
| 20260507001508 | 28 | 215 | 8.0 | 16.1 | 0.00 | 0.00 | 0.00 | 64 | 1015.7 |
| 20260507001004 | 29 | 239 | 6.4 | 16.1 | 0.00 | 0.00 | 0.00 | 63 | 1015.7 |
| 20260507000503 | 30 | 229 | 8.0 | 14.5 | 0.00 | 0.00 | 0.00 | 62 | 1015.7 |
| 20260507000008 | 30 | 238 | 8.0 | 16.1 | 0.00 | 0.00 | 0.00 | 60 | 1015.6 |
| 20260506235504 | 30 | 234 | 6.4 | 16.1 | 0.00 | 0.00 | 0.00 | 58 | 1015.6 |
| 20260506235003 | 31 | 223 | 8.0 | 14.5 | 0.00 | 0.00 | 0.00 | 57 | 1015.5 |
| 20260506234507 | 31 | 260 | 8.0 | 12.9 | 0.00 | 0.00 | 0.00 | 55 | 1015.3 |
| 20260506234003 | 32 | 274 | 3.2 | 12.9 | 0.00 | 0.00 | 0.00 | 54 | 1015.3 |
| 20260506233502 | 32 | 195 | 8.0 | 12.9 | 0.00 | 0.00 | 0.00 | 39 | 1015.2 |
| 20260506233011 | 32 | 196 | 0.0 | 4.8 | 0.00 | 0.00 | 0.00 | 39 | 1015.2 |
| 20260506232505 | 33 | 196 | 1.6 | 6.4 | 0.00 | 0.00 | 0.00 | 40 | 1015.2 |
| 20260506232004 | 33 | 198 | 1.6 | 6.4 | 0.00 | 0.00 | 0.00 | 36 | 1015.3 |
| 20260506231508 | 33 | 193 | 3.2 | 9.7 | 0.00 | 0.00 | 0.00 | 36 | 1015.3 |
| 20260506231005 | 34 | 198 | 4.8 | 9.7 | 0.00 | 0.00 | 0.00 | 35 | 1015.3 |
| 20260506230503 | 35 | 217 | 3.2 | 8.0 | 0.00 | 0.00 | 0.00 | 34 | 1015.3 |
| 20260506230013 | 36 | 136 | 1.6 | 8.0 | 0.00 | 0.00 | 0.00 | 35 | 1015.2 |
| 20260506225503 | 36 | 192 | 1.6 | 8.0 | 0.00 | 0.00 | 0.00 | 32 | 1015.3 |
| 20260506225004 | 37 | 167 | 3.2 | 8.0 | 0.00 | 0.00 | 0.00 | 34 | 1015.4 |
| 20260506224511 | 37 | 220 | 0.0 | 3.2 | 0.00 | 0.00 | 0.00 | 35 | 1015.3 |
| 20260506224003 | 37 | 220 | 0.0 | 4.8 | 0.00 | 0.00 | 0.00 | 32 | 1015.4 |
| 20260506222504 | 37 | 209 | 6.4 | 11.3 | 0.00 | 0.00 | 0.00 | 31 | 1015.5 |
| 20260506222005 | 38 | 190 | 1.6 | 6.4 | 0.00 | 0.00 | 0.00 | 32 | 1015.5 |
| 20260506221510 | 37 | 156 | 0.0 | 4.8 | 0.00 | 0.00 | 0.00 | 32 | 1015.5 |
| 20260506220012 | 38 | 232 | 3.2 | 8.0 | 0.00 | 0.00 | 0.00 | 32 | 1015.5 |
| 20260506215506 | 38 | 142 | 1.6 | 8.0 | 0.00 | 0.00 | 0.00 | 32 | 1015.5 |
| 20260506215002 | 38 | 107 | 4.8 | 9.7 | 0.00 | 0.00 | 0.00 | 32 | 1015.5 |
| 20260506214518 | 38 | 135 | 1.6 | 9.7 | 0.00 | 0.00 | 0.00 | 33 | 1015.5 |
| 20260506214007 | 38 | 148 | 1.6 | 12.9 | 0.00 | 0.00 | 0.00 | 33 | 1015.5 |
| 20260506213503 | 38 | 154 | 6.4 | 12.9 | 0.00 | 0.00 | 0.00 | 32 | 1015.5 |
| 20260506213013 | 38 | 200 | 4.8 | 9.7 | 0.00 | 0.00 | 0.00 | 32 | 1015.6 |
| 20260506212004 | 37 | 225 | 3.2 | 14.5 | 0.00 | 0.00 | 0.00 | 32 | 1015.6 |
| 20260506211510 | 37 | 204 | 1.6 | 16.1 | 0.00 | 0.00 | 0.00 | 36 | 1015.6 |
| 20260506210505 | 37 | 220 | 4.8 | 19.3 | 0.00 | 0.00 | 0.00 | 32 | 1015.5 |
| 20260506210008 | 37 | 192 | 8.0 | 19.3 | 0.00 | 0.00 | 0.00 | 34 | 1015.4 |
| 20260506205003 | 37 | 213 | 8.0 | 16.1 | 0.00 | 0.00 | 0.00 | 36 | 1015.5 |
| 20260506204515 | 37 | 233 | 8.0 | 22.5 | 0.00 | 0.00 | 0.00 | 38 | 1015.5 |
| 20260506204003 | 37 | 209 | 11.3 | 22.5 | 0.00 | 0.00 | 0.00 | 34 | 1015.5 |
| 20260506203502 | 37 | 215 | 4.8 | 12.9 | 0.00 | 0.00 | 0.00 | 35 | 1015.6 |
| 20260506203015 | 37 | 329 | 3.2 | 11.3 | 0.00 | 0.00 | 0.00 | 35 | 1015.6 |
| 20260506202503 | 37 | 305 | 1.6 | 12.9 | 0.00 | 0.00 | 0.00 | 37 | 1015.7 |
| 20260506202007 | 37 | 265 | 6.4 | 16.1 | 0.00 | 0.00 | 0.00 | 38 | 1015.8 |
| 20260506201515 | 37 | 207 | 1.6 | 16.1 | 0.00 | 0.00 | 0.00 | 38 | 1015.7 |
| 20260506201003 | 37 | 215 | 6.4 | 12.9 | 0.00 | 0.00 | 0.00 | 42 | 1015.7 |
| 20260506200502 | 36 | 169 | 6.4 | 16.1 | 0.00 | 0.00 | 0.00 | 40 | 1015.8 |
| 20260506200015 | 36 | 182 | 3.2 | 16.1 | 0.00 | 0.00 | 0.00 | 37 | 1015.8 |
| 20260506195007 | 36 | 188 | 11.3 | 19.3 | 0.00 | 0.00 | 0.00 | 36 | 1015.7 |
| 20260506194514 | 37 | 192 | 4.8 | 19.3 | 0.00 | 0.00 | 0.00 | 41 | 1015.7 |
| 20260506193506 | 36 | 216 | 3.2 | 17.7 | 0.00 | 0.00 | 0.00 | 41 | 1016.0 |
| 20260506193012 | 37 | 213 | 9.7 | 17.7 | 0.00 | 0.00 | 0.00 | 41 | 1016.1 |
| 20260506192506 | 36 | 235 | 6.4 | 14.5 | 0.00 | 0.00 | 0.00 | 42 | 1016.1 |
| 20260506192006 | 36 | 233 | 3.2 | 17.7 | 0.00 | 0.00 | 0.00 | 41 | 1016.1 |
| 20260506191514 | 36 | 191 | 9.7 | 17.7 | 0.00 | 0.00 | 0.00 | 40 | 1016.2 |
| 20260506191006 | 36 | 235 | 4.8 | 14.5 | 0.00 | 0.00 | 0.00 | 43 | 1016.3 |
| 20260506190506 | 36 | 225 | 6.4 | 16.1 | 0.00 | 0.00 | 0.00 | 44 | 1016.4 |
| 20260506190008 | 35 | 110 | 3.2 | 16.1 | 0.00 | 0.00 | 0.00 | 43 | 1016.5 |
| 20260506185009 | 35 | 188 | 9.7 | 17.7 | 0.00 | 0.00 | 0.00 | 44 | 1016.6 |
| 20260506184522 | 35 | 224 | 9.7 | 17.7 | 0.00 | 0.00 | 0.00 | 45 | 1016.7 |
| 20260506184007 | 35 | 322 | 0.0 | 19.3 | 0.00 | 0.00 | 0.00 | 42 | 1016.8 |
| 20260506181007 | 35 | 185 | 6.4 | 9.7 | 0.00 | 0.00 | 0.00 | 47 | 1017.0 |
| 20260506180506 | 34 | 297 | 3.2 | 17.7 | 0.00 | 0.00 | 0.00 | 48 | 1017.1 |
| 20260506180016 | 34 | 52 | 4.8 | 17.7 | 0.00 | 0.00 | 0.00 | 49 | 1017.2 |
| 20260506175506 | 34 | 215 | 3.2 | 14.5 | 0.00 | 0.00 | 0.00 | 49 | 1017.2 |
| 20260506175006 | 34 | 229 | 4.8 | 19.3 | 0.00 | 0.00 | 0.00 | 51 | 1017.3 |
| 20260506174513 | 34 | 196 | 11.3 | 19.3 | 0.00 | 0.00 | 0.00 | 46 | 1017.3 |
| 20260506174007 | 33 | 216 | 3.2 | 19.3 | 0.00 | 0.00 | 0.00 | 49 | 1017.4 |
| 20260506173510 | 34 | 196 | 9.7 | 22.5 | 0.00 | 0.00 | 0.00 | 47 | 1017.5 |
| 20260506173009 | 33 | 173 | 6.4 | 22.5 | 0.00 | 0.00 | 0.00 | 50 | 1017.5 |
| 20260506172503 | 33 | 298 | 6.4 | 14.5 | 0.00 | 0.00 | 0.00 | 53 | 1017.5 |
| 20260506171507 | 33 | 189 | 4.8 | 17.7 | 0.00 | 0.00 | 0.00 | 50 | 1017.7 |
| 20260506171003 | 32 | 189 | 4.8 | 20.9 | 0.00 | 0.00 | 0.00 | 52 | 1017.7 |
| 20260506170512 | 32 | 215 | 8.0 | 20.9 | 0.00 | 0.00 | 0.00 | 48 | 1017.7 |
| 20260506170009 | 32 | 104 | 3.2 | 17.7 | 0.00 | 0.00 | 0.00 | 50 | 1017.8 |
| 20260506165503 | 32 | 163 | 6.4 | 17.7 | 0.00 | 0.00 | 0.00 | 52 | 1017.8 |
| 20260506165005 | 32 | 113 | 4.8 | 20.9 | 0.00 | 0.00 | 0.00 | 55 | 1018.0 |
| 20260506164512 | 32 | 215 | 6.4 | 20.9 | 0.00 | 0.00 | 0.00 | 56 | 1018.0 |
| 20260506164002 | 32 | 185 | 4.8 | 17.7 | 0.00 | 0.00 | 0.00 | 50 | 1017.9 |
| 20260506163014 | 32 | 188 | 6.4 | 16.1 | 0.00 | 0.00 | 0.00 | 52 | 1018.0 |
| 20260506162510 | 32 | 217 | 8.0 | 17.7 | 0.00 | 0.00 | 0.00 | 52 | 1018.0 |
| 20260506162006 | 32 | 236 | 8.0 | 17.7 | 0.00 | 0.00 | 0.00 | 52 | 1018.0 |
| 20260506161515 | 32 | 182 | 6.4 | 17.7 | 0.00 | 0.00 | 0.00 | 51 | 1017.9 |
| 20260506160011 | 31 | 171 | 8.0 | 22.5 | 0.00 | 0.00 | 0.00 | 56 | 1018.0 |
| 20260506155507 | 31 | 176 | 11.3 | 19.3 | 0.00 | 0.00 | 0.00 | 56 | 1017.9 |
| 20260506155007 | 31 | 128 | 0.0 | 16.1 | 0.00 | 0.00 | 0.00 | 58 | 1018.0 |
| 20260506154506 | 31 | 146 | 6.4 | 16.1 | 0.00 | 0.00 | 0.00 | 55 | 1018.0 |
| 20260506154003 | 31 | 142 | 3.2 | 16.1 | 0.00 | 0.00 | 0.00 | 57 | 1018.0 |
| 20260506153503 | 31 | 155 | 6.4 | 17.7 | 0.00 | 0.00 | 0.00 | 56 | 1018.1 |
| 20260506153015 | 31 | 153 | 8.0 | 19.3 | 0.00 | 0.00 | 0.00 | 57 | 1018.2 |
| 20260506152503 | 31 | 206 | 6.4 | 19.3 | 0.00 | 0.00 | 0.00 | 56 | 1018.2 |
| 20260506151516 | 30 | 139 | 9.7 | 20.9 | 0.00 | 0.00 | 0.00 | 60 | 1018.1 |
| 20260506151003 | 30 | 199 | 4.8 | 20.9 | 0.00 | 0.00 | 0.00 | 59 | 1018.1 |
| 20260506150505 | 30 | 160 | 6.4 | 17.7 | 0.00 | 0.00 | 0.00 | 62 | 1018.1 |
| 20260506150022 | 29 | 157 | 4.8 | 17.7 | 0.00 | 0.00 | 0.00 | 62 | 1018.1 |
| 20260506145509 | 29 | 188 | 6.4 | 16.1 | 0.00 | 0.00 | 0.00 | 63 | 1018.1 |
| 20260506145003 | 29 | 188 | 6.4 | 14.5 | 0.00 | 0.00 | 0.00 | 64 | 1018.1 |
| 20260506144535 | 29 | 163 | 4.8 | 12.9 | 0.00 | 0.00 | 0.00 | 67 | 1018.1 |
| 20260506144007 | 28 | 188 | 4.8 | 12.9 | 0.00 | 0.00 | 0.00 | 69 | 1018.3 |
| 20260506143504 | 28 | 176 | 4.8 | 11.3 | 0.00 | 0.00 | 0.00 | 70 | 1018.2 |
| 20260506143013 | 28 | 160 | 3.2 | 14.5 | 0.00 | 0.00 | 0.00 | 70 | 1018.2 |
| 20260506142505 | 28 | 205 | 8.0 | 14.5 | 0.00 | 0.00 | 0.00 | 71 | 1018.2 |
| 20260506142008 | 27 | 175 | 3.2 | 11.3 | 0.00 | 0.00 | 0.00 | 70 | 1018.3 |
| 20260506141512 | 27 | 123 | 6.4 | 14.5 | 0.00 | 0.00 | 0.00 | 72 | 1018.3 |
| 20260506141009 | 27 | 159 | 4.8 | 16.1 | 0.00 | 0.00 | 0.00 | 72 | 1018.4 |